1399248029792,18.8569
1399248089792,18.8156
1399248149792,18.8820
1399248209792,18.7978
1399248269792,18.8753
1399248329792,18.8120
1399248389792,18.8259
1399248449792,18.7985
1399248509792,18.8655
1399248569792,18.8095
1399248629792,18.8143
1399248689792,18.7731
1399248749792,18.8568
1399248809792,18.8239
1399248869792,18.9047
1399248929792,18.9117
1399248989792,18.8422
1399249049792,18.8330
1399249109792,18.7931
1399249169792,18.8104
1399249229792,18.8071
1399249289792,18.8782
1399249349792,18.8064
1399249409792,18.8103
1399249469792,18.8197
1399249529792,18.8055
1399249589792,18.7774
1399249649792,18.8098
1399249709792,18.8662
1399249769792,18.8311
1399249829792,18.8083
1399249889792,18.8336
1399249949792,18.9085
1399250009792,18.8350
1399250069792,18.8576
1399250129792,18.8546
1399250189792,18.8416
1399250249792,18.9243
1399250309792,18.8883
1399250369792,18.8709
1399250429792,18.8527
1399250489792,18.8872
1399250549792,18.5507
1399250609792,18.8630
1399250669792,18.8502
1399250729792,18.8906
1399250789792,18.8981
1399250849792,18.9113
1399250909792,18.8862
1399250969792,18.9056
1399251029792,18.8806
1399251089792,18.8213
1399251149792,18.8851
1399251209792,18.8449
1399251269792,18.8510
1399251329792,18.7872
1399251389792,18.8073
1399251449792,18.8884
1399251509792,18.8010
1399251569792,18.8168
1399251629803,18.7908
1399251689803,18.8514
1399251749803,18.7760
1399251809803,18.7666
1399251869803,18.8054
1399251929803,18.8178
1399251989803,18.8133
1399252049803,18.8184
1399252109803,18.8551
1399252169803,18.8734
1399252229803,18.7917
1399252289803,18.7083
1399252829803,18.9419
1399252889803,18.8085
1399252949803,18.9062
1399253009803,18.9274
1399253069803,18.8248
1399253129803,18.8792
1399253189803,19.0053
1399253249803,18.9594
1399253309803,18.9453
1399253369803,18.9638
1399253429803,18.8918
1399253489803,18.8617
1399253549803,18.9229
1399253609803,18.9081
1399253669803,18.8650
1399253729803,18.8233
1399253789803,18.8451
1399253849803,18.8220
1399253909803,18.8563
1399253969803,18.8625
1399254029803,18.8216
1399254089803,18.7686
1399254149803,18.9514
1399254209803,18.8480
1399254269803,18.8077
1399254329803,18.8132
1399254389803,18.8059
1399254449803,18.8899
1399254509803,18.8182
1399254569803,18.8037
1399254629803,18.7962
1399254689803,18.8494
1399254749803,18.8284
1399254809803,18.8262
1399254869803,18.8451
1399254929803,18.8666
1399254989803,18.8157
1399255049803,18.7963
1399255109803,18.8010
1399255169803,18.8364
1399255229814,18.8198
1399255289814,18.8198
1399255349814,18.8086
1399255409814,18.8125
1399255469813,18.8043
1399255529813,18.8203
1399255589813,18.8135
1399255649813,18.8318
1399255709813,18.7979
1399255769813,18.8862
1399255829813,18.7820
1399255889814,18.7982
1399255949814,18.7913
1399256009814,18.8281
1399256069814,18.8323
1399256129814,18.8149
1399256189813,18.9091
1399256249814,18.8474
1399256309814,18.8848
1399256369814,18.8197
1399256429814,18.7885
1399256489814,18.8359
1399256549814,18.7840
1399256609814,18.7829
1399256669814,18.7452
1399256729814,18.8549
1399256789814,18.8525
1399256849813,18.8009
1399256909813,18.8368
1399256969813,18.8197
1399257029813,18.7920
1399257089813,18.8491
1399257149813,18.8663
1399257209813,18.8658
1399257269814,18.8458
1399257329814,18.7974
1399257389814,18.8566
1399257449814,18.8378
1399257509813,18.7950
1399257569814,18.8760
1399257629814,18.8249
1399257689814,18.8299
1399257749814,18.8380
1399257809814,18.8406
1399257869814,18.8384
1399257929814,18.8663
1399257989814,18.9032
1399258049814,18.8691
1399258109814,18.8814
1399258169813,18.8796
1399258229813,18.8234
1399258289813,18.8030
1399258349813,18.8001
1399258409813,18.7446
1399258469813,18.8606
1399258529813,18.7947
1399258589814,18.8281
1399258649814,18.8111
1399258709814,18.8743
1399258769814,18.8600
1399258829824,18.8776
1399258889824,18.8660
1399258949824,18.8521
1399259009824,18.8198
1399259069824,18.8578
1399259129824,18.8409
1399259189824,18.8781
1399259249824,18.7502
1399259309824,18.7618
1399259369824,18.8698
1399259429824,18.8409
1399259489824,18.8421
1399259549824,18.7898
1399259609824,18.7697
1399259669824,18.7383
1399259729824,18.8304
1399259789824,18.8120
1399259849824,18.7760
1399259909824,18.7395
1399259969824,18.7552
1399260029824,18.7867
1399260089824,18.7952
1399260149824,18.8078
1399260209824,18.8173
1399260269824,18.8183
1399260329824,18.7948
1399260389824,18.8076
1399260449824,18.7798
1399260509824,18.7894
1399260569824,18.7972
1399260629824,18.8089
1399260689824,18.7887
1399260749824,18.8040
1399260809824,18.8048
1399260869824,18.8006
1399260929824,18.7789
1399260989824,18.7155
1399261049824,18.7433
1399261109824,18.8092
1399261169824,18.7329
1399261229824,18.7059
1399261289824,18.8033
1399261349824,18.8207
1399261409824,18.7934
1399261469824,18.7382
1399261529824,18.8232
1399261589824,18.7556
1399261649824,18.7828
1399261709824,18.7386
1399261769824,18.6863
1399261829824,18.7632
1399261889824,18.7594
1399261949824,18.7538
1399262009824,18.7450
1399262069824,18.7383
1399262129824,18.7244
1399262189824,18.7019
1399262249824,18.7925
1399262309824,18.8144
1399262369824,18.7832
1399262429834,18.7671
1399262489834,18.7722
1399262549834,18.7836
1399262609834,18.7139
1399262669834,18.7679
1399262729834,18.7609
1399262789834,18.7511
1399262849834,18.8165
1399262909834,18.7651
1399262969834,18.7499
1399263029834,18.7890
1399263089834,18.7755
1399263149834,18.8034
1399263209834,18.9274
1399263269834,18.7918
1399263329834,18.7907
1399263389834,18.7180
1399263449834,18.7134
1399263509834,18.7497
1399263569834,18.7600
1399263629834,18.7771
1399263689834,18.7940
1399263749834,18.7232
1399263809834,18.6857
1399263869834,18.7267
1399263929834,18.8021
1399263989834,18.7863
1399264049834,18.7304
1399264109834,18.7475
1399264169834,18.7255
1399264229834,18.7364
1399264289834,18.8041
1399264349834,18.7303
1399264409834,18.8001
1399264469834,18.7534
1399264529834,18.7663
1399264589834,18.7270
1399264649834,18.7844
1399264709834,18.7622
1399264769834,18.7680
1399264829834,18.8078
1399264889834,18.7617
1399264949834,18.7690
1399265009834,18.7917
1399265069834,18.7587
1399265129834,18.7730
1399265189834,18.7497
1399265249834,18.9259
1399265309834,18.8430
1399265369834,18.8891
1399265429834,18.7959
1399265489834,18.8220
1399265549834,18.7927
1399265609834,18.8434
1399265669834,18.8087
1399265729834,18.8297
1399265789834,18.8129
1399265849834,18.7983
1399265909834,18.8127
1399265969834,18.6918
1399266029843,18.7895
1399266089843,18.7838
1399266149843,18.8119
1399266209843,18.7241
1399266269843,18.7608
1399266329843,18.7506
1399266389843,18.7901
1399266449843,18.7465
1399266509843,18.6829
1399266569843,18.7093
1399266629843,18.7183
1399266689843,18.7889
1399266749843,18.6683
1399266809843,18.7089
1399266869843,18.7588
1399266929843,18.7731
1399266989843,18.7920
1399267049843,18.7917
1399267109843,18.7845
1399267169843,18.7706
1399267229843,18.7299
1399267289843,18.7809
1399267349843,18.7752
1399267409843,18.7894
1399267469843,18.7609
1399267529843,18.8060
1399267589843,18.8697
1399267649843,18.8349
1399267709843,18.8415
1399267769843,18.7328
1399267829843,18.7687
1399267889843,18.8278
1399267949843,18.7182
1399268009843,18.8202
1399268069843,18.8276
1399268129843,18.8908
1399268189843,18.8447
1399268249843,18.8538
1399268309843,18.7748
1399268369843,18.7976
1399268429843,18.7903
1399268489843,18.7481
1399268549843,18.8009
1399268609843,18.7526
1399268669843,18.8327
1399268729843,18.7615
1399268789843,18.8445
1399268849843,18.7796
1399268909843,18.7893
1399268969843,18.8327
1399269029843,18.8139
1399269089843,18.8218
1399269149843,18.8355
1399269209843,18.8060
1399269269843,18.7923
1399269329843,18.8036
1399269389843,18.8355
1399269449843,18.7772
1399269509843,18.8148
1399269569843,18.8083
1399269629853,18.7891
1399269689853,18.7849
1399269749853,18.7638
1399269809853,18.7953
1399269869853,18.7788
1399269929853,18.7229
1399269989853,18.8072
1399270049853,18.8325
1399270109853,18.7877
1399270169853,18.7907
1399270229853,18.8308
1399270289853,18.7955
1399270349853,18.7863
1399270409853,18.8164
1399270469853,18.7902
1399270529853,18.7493
1399270589853,18.8015
1399270649853,18.7666
1399270709853,18.7847
1399270769853,18.8257
1399270829853,18.7895
1399270889853,18.8142
1399270949853,18.8891
1399271009853,18.8388
1399271069853,18.8449
1399271129853,18.9709
1399271189853,19.0191
1399271249853,19.0428
1399271309853,18.9421
1399271369853,18.9433
1399271429853,18.8796
1399271489853,18.9575
1399271549853,18.9093
1399271609853,18.9104
1399271669853,18.8663
1399271729853,18.8696
1399271789853,18.8341
1399271849853,18.7891
1399271909853,18.8513
1399271969853,18.7912
1399272029853,18.8610
1399272089853,18.8268
1399272149853,18.8095
1399272209853,18.8002
1399272269853,18.8583
1399272329853,18.8064
1399272389853,18.8468
1399272449853,18.8080
1399272509853,18.7328
1399272569853,18.8099
1399272629853,18.7765
1399272689853,18.7969
1399272749853,18.7374
1399272809853,18.7710
1399272869853,18.7667
1399272929853,18.8260
1399272989853,18.8278
1399273049853,18.7623
1399273109853,18.8120
1399273169853,18.7863
1399273229863,18.7694
1399273289863,18.7893
1399273349863,18.7006
1399273409863,18.7906
1399273469863,18.7498
1399273529863,18.8080
1399273589863,18.7984
1399273649863,18.7621
1399273709863,18.8559
1399273769863,18.7463
1399273829863,18.7337
1399273889863,18.7821
1399273949863,18.8224
1399274009863,18.8076
1399274069863,18.7929
1399274129863,18.7962
1399274189863,18.7679
1399274249863,18.7939
1399274309863,18.8288
1399274369863,18.7578
1399274429863,18.8165
1399274489863,18.8527
1399274549863,18.8119
1399274609863,18.7966
1399274669863,18.8050
1399274729863,18.7686
1399274789863,18.8353
1399274849863,18.8007
1399274909863,18.7903
1399274969863,18.8062
1399275029863,18.8395
1399275089863,18.7997
1399275149863,18.7929
1399275209863,18.8293
1399275269863,18.8213
1399275329863,18.8406
1399275389863,18.8133
1399275449863,18.8012
1399275509863,18.8085
1399275569863,18.7625
1399275629863,18.7440
1399275689863,18.7960
1399275749863,18.7517
1399275809863,18.8088
1399275869863,18.7751
1399275929863,18.7149
1399275989863,18.7655
1399276049863,18.8287
1399276109863,18.7817
1399276169863,18.7646
1399276229863,18.7677
1399276289863,18.7795
1399276349863,18.7518
1399276409863,18.7815
1399276469863,18.7810
1399276529863,18.8249
1399276589863,18.7776
1399276649863,18.7511
1399276709863,18.7472
1399276769863,18.7464
1399276829872,18.7967
1399276889872,18.8006
1399276949872,18.8321
1399277009872,18.8569
1399277069872,18.8044
1399277129872,18.8067
1399277189872,18.8104
1399277249872,18.7499
1399277309872,18.7643
1399277369872,18.8130
1399277429872,18.7291
1399277489872,18.8413
1399277549872,18.8264
1399277609872,18.7779
1399277669872,18.8039
1399277729872,18.8173
1399277789872,18.8129
1399277849872,18.8174
1399277909872,18.7830
1399277969872,18.7758
1399278029872,18.8293
1399278089872,18.7521
1399278149872,18.8230
1399278209872,18.7717
1399278269872,18.8582
1399278329872,18.8347
1399278389872,18.7883
1399278449872,18.7884
1399278509872,18.7574
1399278569872,18.7890
1399278629872,18.8255
1399278689872,18.7610
1399278749872,18.7630
1399278809872,18.8098
1399278869872,18.7399
1399278929872,18.7534
1399278989872,18.8071
1399279049872,18.8064
1399279109872,18.7666
1399279169872,18.8222
1399279229872,18.8671
1399279289872,18.8137
1399279349872,18.8054
1399279409872,18.8069
1399279469872,18.8170
1399279529872,18.7970
1399279589872,18.7835
1399279649872,18.7479
1399279709872,18.7447
1399279769872,18.8063
1399279829872,18.7979
1399279889872,18.8362
1399279949872,18.8130
1399280009872,18.8963
1399280069872,18.8499
1399280129872,18.8332
1399280189872,18.8062
1399280249872,18.8511
1399280309872,18.8748
1399280369872,18.7981
1399280429881,18.9033
1399280489881,18.8601
1399280549881,18.8113
1399280609881,18.7983
1399280669881,18.8024
1399280729881,18.8301
1399280789881,18.9009
1399280849881,18.8997
1399280909881,18.8583
1399280969881,18.9089
1399281029881,18.8407
1399281089881,18.8126
1399281149881,18.8229
1399281209881,18.8798
1399281269881,18.8450
1399281329881,18.8329
1399281389881,18.9146
1399281449881,18.9502
1399281509881,18.8832
1399281569881,18.7728
1399281629881,18.8640
1399281689881,18.8554
1399281749881,18.7699
1399281809881,18.8760
1399281869881,18.8537
1399281929881,18.8988
1399281989881,18.8126
1399282049881,18.8301
1399282109881,18.8288
1399282169881,18.8580
1399282229881,18.8758
1399282289881,18.8692
1399282349881,18.8184
1399282409881,18.8504
1399282469881,18.8565
1399282529881,18.7952
1399282589881,18.8348
1399282649881,18.8942
1399282709881,18.8908
1399282769881,18.8379
1399282829881,18.8325
1399282889881,18.8490
1399282949881,18.8624
1399283009881,18.7814
1399283069881,18.8704
1399283129881,18.8870
1399283189881,18.7693
1399283249881,18.8627
1399283309881,18.7873
1399283369881,18.7833
1399283429881,18.8181
1399283489881,18.7923
1399283549881,18.8147
1399283609881,18.8728
1399283669881,18.7700
1399283729881,18.8117
1399283789881,18.7136
1399283849881,18.8186
1399283909881,18.8136
1399283969881,18.8019
1399284029891,18.8270
1399284089891,18.8138
1399284149891,18.8406
1399284209891,18.8796
1399284269891,18.7654
1399284329891,18.9031
1399284389891,18.8269
1399284449891,18.8227
1399284509891,18.7869
1399284569891,18.7875
1399284629891,18.7830
1399284689891,18.8439
1399284749891,18.8100
1399284809891,18.8410
1399284869891,18.8610
1399284929891,18.8430
1399284989891,18.8640
1399285049891,18.8387
1399285109891,18.8091
1399285169891,18.8465
1399285229891,18.8460
1399285289891,18.8292
1399285349891,18.8123
1399285409891,18.8047
1399285469891,18.7784
1399285529891,18.8000
1399285589891,18.8203
1399285649891,18.8528
1399285709891,18.8264
1399285769891,18.8754
1399285829891,18.8570
1399285889891,18.7968
1399285949891,18.8394
1399286009891,18.8643
1399286069891,18.8801
1399286129891,18.8815
1399286189891,18.8844
1399286249891,18.9219
1399286309891,18.9640
1399286369891,18.8527
1399286429891,18.8516
1399286489891,18.8087
1399286549891,18.8289
1399286609891,18.8571
1399286669891,18.8516
1399286729891,18.8379
1399286789891,18.8270
1399286849891,18.7920
1399286909891,18.8294
1399286969891,18.8527
1399287029891,18.7935
1399287089891,18.8629
1399287149891,18.8055
1399287209891,18.8375
1399287269891,18.7743
1399287329891,18.8060
1399287389891,18.9263
1399287449891,18.8876
1399287509891,18.9998
1399287569891,18.9124
1399287629900,18.8599
1399287689900,18.8875
1399287749900,18.8391
1399287809900,18.9444
1399287869900,18.9669
1399287929900,18.8478
1399287989900,18.9121
1399288049900,18.9074
1399288109900,18.8564
1399288169900,18.8698
1399288229900,18.8792
1399288289900,18.8811
1399288349900,18.8566
1399288409900,18.7983
1399288469900,18.8863
1399288529900,18.8304
1399288589900,18.8628
1399288649900,18.8367
1399288709900,18.8224
1399288769900,18.8424
1399288829900,18.8415
1399288889900,18.9176
1399288949900,18.7948
1399289009900,18.8250
1399289069900,18.8458
1399289129900,18.8655
1399289189900,18.8244
1399289249900,18.7950
1399289309900,18.7723
1399289369900,18.8038
1399289429900,18.8281
1399289489900,18.8175
1399289549900,18.7609
1399289609900,18.7904
1399289669900,18.8232
1399289729900,18.7990
1399289789900,18.8124
1399289849900,18.7725
1399289909900,18.7630
1399289969900,18.8161
1399290029900,18.7908
1399290089900,18.7623
1399290149900,18.7833
1399290209900,18.9243
1399290269900,18.8235
1399290329900,18.8287
1399290389900,18.8445
1399290449900,18.8208
1399290509900,18.8574
1399290569900,18.8204
1399290629900,18.9011
1399290689900,18.8595
1399290749900,18.7975
1399290809900,18.8615
1399290869900,18.8642
1399290929900,18.9267
1399290989900,18.9160
1399291049900,18.9376
1399291109900,18.9081
1399291169900,18.9121
1399291229909,18.8688
1399291289909,18.9346
1399291349909,18.9388
1399291409909,18.9427
1399291469909,18.9073
1399291529909,18.9567
1399291589909,18.9725
1399291649909,18.9331
1399291709909,18.8751
1399291769909,18.9232
1399291829909,18.9547
1399291889909,18.9774
1399291949909,18.9418
1399292009909,18.9496
1399292069909,18.9452
1399292129909,18.9963
1399292189909,18.9593
1399292249909,18.9867
1399292309909,18.9761
1399292369909,18.9674
1399292429909,18.9364
1399292489909,18.9121
1399292549909,18.9667
1399292609909,18.9715
1399292669909,18.9581
1399292729909,18.9606
1399292789909,19.0163
1399292849909,19.0010
1399292909909,19.0360
1399292969909,18.9998
1399293029909,18.9800
1399293089909,19.0192
1399293149909,19.0606
1399293209909,18.9692
1399293269909,19.0247
1399293329909,19.0656
1399293389909,19.1435
1399293449909,19.1227
1399293509909,19.0017
1399293569909,18.9787
1399293629909,19.0377
1399293689909,19.0223
1399293749909,18.9920
1399293809909,19.0412
1399293869909,18.9179
1399293929909,18.9487
1399293989909,18.9054
1399294049909,18.8434
1399294109909,18.8627
1399294169909,18.9464
1399294229909,18.8635
1399294289909,18.8314
1399294349909,18.8967
1399294409909,18.9619
1399294469909,18.8858
1399294529909,18.8421
1399294589909,18.7718
1399294649909,18.9040
1399294709909,18.8077
1399294769909,18.8709
1399294829918,18.8536
1399294889918,18.8653
1399294949918,18.8454
1399295009918,18.8316
1399295069918,18.8083
1399295129918,18.7858
1399295189918,18.9114
1399295249918,18.8406
1399295309918,18.8448
1399295369918,18.8207
1399295429918,18.8361
1399295489918,18.8493
1399295549918,18.8342
1399295609918,18.8784
1399295669918,18.8317
1399295729918,18.7528
1399295789918,18.9417
1399295849918,18.8790
1399295909918,18.9051
1399295969918,18.8799
1399296029918,18.8719
1399296089918,18.8322
1399296149918,18.9386
1399296209918,18.8467
1399296269918,18.8773
1399296329918,18.8637
1399296389918,18.8396
1399296449918,18.8272
1399296509918,18.9085
1399296569918,18.9117
1399296629918,18.8762
1399296689918,18.8652
1399296749918,18.8742
1399296809918,18.7965
1399296869918,18.8448
1399296929918,18.8780
1399296989918,18.8800
1399297049918,18.8359
1399297109918,18.8790
1399297169918,18.7649
1399297229918,18.7970
1399297289918,18.8234
1399297349918,18.8482
1399297409918,18.8136
1399297469918,18.8531
1399297529918,18.8273
1399297589918,18.8083
1399297649918,18.8495
1399297709918,18.8124
1399297769918,18.7837
1399297829918,18.8260
1399297889918,18.7308
1399297949918,18.7857
1399298009918,18.7821
1399298069918,18.8330
1399298129918,18.7843
1399298189918,18.8241
1399298249918,18.7851
1399298309918,18.8319
1399298369918,18.7956
1399298429928,18.8445
1399298489928,18.8424
1399298549928,18.8050
1399298609928,18.8013
1399298669928,18.8738
1399298729928,18.8717
1399298789928,18.8010
1399298849928,18.8143
1399298909928,18.7754
1399298969928,18.8359
1399299029928,18.8754
1399299089928,18.8295
1399299149928,18.8276
1399299209928,18.8877
1399299269928,18.8640
1399299329928,18.8015
1399299389928,18.8277
1399299449928,18.8383
1399299509928,18.8404
1399299569928,18.8306
1399299629928,18.9248
1399299689928,18.9081
1399299749928,18.8558
1399299809928,18.8754
1399299869928,18.8393
1399299929928,18.9408
1399299989928,18.8624
1399300049928,18.8687
1399300109928,18.8324
1399300169928,18.8841
1399300229928,18.8187
1399300289928,18.8230
1399300349928,18.8103
1399300409928,18.9053
1399300469928,18.9204
1399300529928,18.8687
1399300589928,18.8872
1399300649928,18.8846
1399300709928,18.8866
1399300769928,18.8713
1399300829928,18.8947
1399300889928,18.8912
1399300949928,18.7948
1399301009928,18.8238
1399301069928,18.8294
1399301129928,18.8735
1399301189928,18.7858
1399301249928,18.8601
1399301309928,18.8204
1399301369928,18.7939
1399301429928,18.8104
1399301489928,18.8197
1399301549928,18.7434
1399301609928,18.8306
1399301669928,18.8375
1399301729928,18.7820
1399301789928,18.7638
1399301849928,18.7932
1399301909928,18.7976
1399301969928,18.7822
1399302029937,18.7966
1399302089937,18.7796
1399302149937,18.8263
1399302209937,18.7902
1399302269937,18.8624
1399302329937,18.8432
1399302389937,18.7631
1399302449937,18.8523
1399302509937,18.7421
1399302569937,18.8278
1399302629937,18.8669
1399302689937,18.7469
1399302749937,18.8615
1399302809937,18.8932
1399302869937,18.8655
1399302929937,18.8065
1399302989937,18.8572
1399303049937,18.7437
1399303109937,18.8542
1399303169937,18.8605
1399303229937,18.8397
1399303289937,18.8629
1399303349937,18.8254
1399303409937,18.9164
1399303469937,18.8598
1399303529937,18.8218
1399303589937,18.8649
1399303649937,18.9837
1399303709937,18.9738
1399303769937,18.9847
1399303829937,18.9845
1399303889937,18.9879
1399303949937,18.9077
1399304009937,18.9813
1399304069937,18.9334
1399304129937,18.9251
1399304189937,18.9027
1399304249937,18.8889
1399304309937,18.8740
1399304369937,18.9315
1399304429937,18.8982
1399304489937,18.9871
1399304549937,18.8795
1399304609937,18.9234
1399304669937,18.8470
1399304729937,18.8339
1399304789937,18.7767
1399304849937,18.7930
1399304909937,18.8074
1399304969937,18.8368
1399305029937,18.8029
1399305089937,18.8949
1399305149937,18.8275
1399305209937,18.8041
1399305269937,18.8658
1399305329937,18.9061
1399305389937,18.8561
1399305449937,18.8355
1399305509937,18.7808
1399305569937,18.8150
1399305629946,18.8583
1399305689946,18.8866
1399305749946,18.8132
1399305809946,18.7871
1399305869946,18.8209
1399305929946,18.8103
1399305989946,18.8224
1399306049946,18.7657
1399306109946,18.8235
1399306169946,18.8702
1399306229946,18.8559
1399306289946,18.8571
1399306349946,18.8662
1399306409946,18.7964
1399306469946,18.8989
1399306529946,18.8818
1399306589946,18.8345
1399306649946,18.8068
1399306709946,18.8310
1399306769946,18.8536
1399306829946,18.8216
1399306889946,18.8937
1399306949946,18.8277
1399307009946,18.8141
1399307069946,18.8526
1399307129946,18.7776
1399307189946,18.8151
1399307249946,18.8367
1399307309946,18.8282
1399307369946,18.8159
1399307429946,18.8236
1399307489946,18.8622
1399307549946,18.8145
1399307609946,18.8288
1399307669946,18.7958
1399307729946,18.7995
1399307789946,18.8445
1399307849946,18.9095
1399307909946,18.8763
1399307969946,18.8811
1399308029946,18.7732
1399308089946,18.8435
1399308149946,18.8437
1399308209946,18.8643
1399308269946,18.8710
1399308329946,18.7670
1399308389946,18.8552
1399308449946,18.8111
1399308509946,18.8062
1399308569946,18.8183
1399308629946,18.8361
1399308689946,18.8284
1399308749946,18.8585
1399308809946,18.9454
1399308869946,18.8512
1399308929946,18.8342
1399308989946,18.8175
1399309049946,18.7973
1399309109946,18.8614
1399309169946,18.7838
1399309229956,18.8323
1399309289956,18.8317
1399309349956,18.7984
1399309409956,18.8149
1399309469956,18.8120
1399309529956,18.8391
1399309589956,18.8091
1399309649956,18.8027
1399309709956,18.7848
1399309769956,18.7805
1399309829956,18.8110
1399309889955,18.8126
1399309949955,18.8626
1399310009955,18.8183
1399310069955,18.7750
1399310129955,18.8461
1399310189956,18.7472
1399310249956,18.8356
1399310309956,18.8154
1399310369956,18.8349
1399310429956,18.7790
1399310489956,18.8522
1399310549956,18.8288
1399310609956,18.7852
1399310669956,18.8529
1399310729956,18.8224
1399310789956,18.8037
1399310849956,18.8308
1399310909956,18.8544
1399310969956,18.8830
1399311029956,18.8813
1399311089956,18.8083
1399311149956,18.9125
1399311209955,18.7985
1399311269955,18.8178
1399311329955,18.8192
1399311389955,18.7607
1399311449955,18.8392
1399311509956,18.8393
1399311569956,18.8135
1399311629956,18.8129
1399311689956,18.8080
1399311749956,18.8700
1399311809956,18.7925
1399311869956,18.7815
1399311929956,18.8480
1399311989956,18.9227
1399312049956,18.9259
1399312109956,18.9480
1399312169956,18.9464
1399312229956,18.9144
1399312289956,18.9887
1399312349956,18.9666
1399312409956,18.9899
1399312469956,18.9915
1399312529956,18.9180
1399312589955,18.9641
1399312649955,18.9130
1399312709955,19.0131
1399312769955,18.9758
1399312829965,18.8709
1399312889965,19.0020
1399312949965,18.9113
1399313009965,18.9985
1399313069965,18.9852
1399313129965,18.9604
1399313189965,18.9367
1399313249965,18.9147
1399313309965,18.9562
1399313369965,19.0002
1399313429965,19.0287
1399313489965,19.0211
1399313549965,19.0334
1399313609965,18.9035
1399313669965,19.0493
1399313729965,19.0238
1399313789965,19.0806
1399313849965,19.1305